Time,TemperatureF,DewpointF,PressureIn,WindDirection,WindDirectionDegrees,WindSpeedMPH,WindSpeedGustMPH,Humidity,HourlyPrecipIn,Conditions,Clouds,dailyrainin,SoftwareType,DateUTC
2013-03-18 00:00:00,6.6,-8.1,30.20,ESE,118,7.0,8.0,50,0.00,,,0.00,Wunderground v.1.13,2013-03-18 04:00:00,
2013-03-18 00:01:00,6.6,-8.1,30.20,SSE,150,7.0,8.0,50,0.00,,,0.00,Wunderground v.1.13,2013-03-18 04:01:00,
2013-03-18 00:03:00,6.5,-8.6,30.21,SE,127,6.0,8.0,49,0.00,,,0.00,Wunderground v.1.13,2013-03-18 04:03:00,
2013-03-18 00:04:00,6.5,-8.6,30.20,ESE,102,5.0,5.0,49,0.00,,,0.00,Wunderground v.1.13,2013-03-18 04:04:00,
2013-03-18 00:09:00,6.4,-8.7,30.21,SE,128,4.0,4.0,49,0.00,,,0.00,Wunderground v.1.13,2013-03-18 04:09:00,
2013-03-18 00:20:00,6.2,-8.5,30.21,SSE,159,4.0,4.0,50,0.00,,,0.00,Wunderground v.1.13,2013-03-18 04:20:00,
2013-03-18 00:25:00,6.2,-8.5,30.21,SE,124,4.0,7.0,50,0.00,,,0.00,Wunderground v.1.13,2013-03-18 04:25:00,
2013-03-18 00:35:00,6.2,-8.5,30.21,ESE,107,5.0,5.0,50,0.00,,,0.00,Wunderground v.1.13,2013-03-18 04:35:00,
2013-03-18 00:40:00,6.1,-8.6,30.21,ESE,113,4.0,4.0,50,0.00,,,0.00,Wunderground v.1.13,2013-03-18 04:40:00,
2013-03-18 00:46:00,6.1,-8.6,30.22,East,92,4.0,7.0,50,0.00,,,0.00,Wunderground v.1.13,2013-03-18 04:46:00,
2013-03-18 00:52:00,6.1,-8.6,30.22,East,98,5.0,11.0,50,0.00,,,0.00,Wunderground v.1.13,2013-03-18 04:52:00,
2013-03-18 00:58:00,6.0,-8.7,30.22,SE,132,4.0,11.0,50,0.00,,,0.00,Wunderground v.1.13,2013-03-18 04:58:00,
2013-03-18 01:04:00,5.9,-8.4,30.22,East,97,4.0,9.0,51,0.00,,,0.00,Wunderground v.1.13,2013-03-18 05:04:00,
2013-03-18 01:10:00,6.0,-8.7,30.23,ESE,117,4.0,6.0,50,0.00,,,0.00,Wunderground v.1.13,2013-03-18 05:10:00,
2013-03-18 01:19:00,6.0,-8.3,30.23,SE,127,5.0,6.0,51,0.00,,,0.00,Wunderground v.1.13,2013-03-18 05:19:00,
2013-03-18 01:25:00,6.0,-8.3,30.23,SE,136,5.0,6.0,51,0.00,,,0.00,Wunderground v.1.13,2013-03-18 05:25:00,
2013-03-18 01:35:00,5.7,-8.2,30.23,SE,142,4.0,5.0,52,0.00,,,0.00,Wunderground v.1.13,2013-03-18 05:35:00,
2013-03-18 01:41:00,5.7,-8.2,30.24,SE,139,3.0,5.0,52,0.00,,,0.00,Wunderground v.1.13,2013-03-18 05:41:00,
2013-03-18 01:50:00,5.6,-8.3,30.24,SE,124,4.0,4.0,52,0.00,,,0.00,Wunderground v.1.13,2013-03-18 05:50:00,
2013-03-18 01:56:00,5.6,-7.9,30.23,SSE,152,3.0,3.0,53,0.00,,,0.00,Wunderground v.1.13,2013-03-18 05:56:00,
2013-03-18 02:05:00,5.7,-7.8,30.24,SE,142,4.0,4.0,53,0.00,,,0.00,Wunderground v.1.13,2013-03-18 06:05:00,
2013-03-18 02:11:00,5.6,-8.3,30.24,SSE,155,3.0,6.0,52,0.00,,,0.00,Wunderground v.1.13,2013-03-18 06:11:00,
2013-03-18 02:20:00,5.4,-8.1,30.24,ESE,111,2.0,10.0,53,0.00,,,0.00,Wunderground v.1.13,2013-03-18 06:20:00,
2013-03-18 02:25:00,5.2,-7.9,30.24,SE,132,2.0,5.0,54,0.00,,,0.00,Wunderground v.1.13,2013-03-18 06:25:00,
2013-03-18 02:35:00,5.1,-8.0,30.24,SE,142,3.0,3.0,54,0.00,,,0.00,Wunderground v.1.13,2013-03-18 06:35:00,
2013-03-18 02:42:00,5.2,-7.5,30.25,SE,137,3.0,3.0,55,0.00,,,0.00,Wunderground v.1.13,2013-03-18 06:42:00,
2013-03-18 02:50:00,5.1,-7.6,30.25,ESE,109,3.0,5.0,55,0.00,,,0.00,Wunderground v.1.13,2013-03-18 06:50:00,
2013-03-18 02:56:00,5.1,-7.6,30.25,ESE,112,3.0,3.0,55,0.00,,,0.00,Wunderground v.1.13,2013-03-18 06:56:00,
2013-03-18 03:05:00,5.0,-7.7,30.25,East,87,3.0,3.0,55,0.00,,,0.00,Wunderground v.1.13,2013-03-18 07:05:00,
2013-03-18 03:10:00,5.0,-7.7,30.25,ESE,114,3.0,5.0,55,0.00,,,0.00,Wunderground v.1.13,2013-03-18 07:10:00,
2013-03-18 03:20:00,4.9,-7.4,30.25,East,97,2.0,2.0,56,0.00,,,0.00,Wunderground v.1.13,2013-03-18 07:20:00,
2013-03-18 03:25:00,4.7,-7.6,30.25,East,101,3.0,3.0,56,0.00,,,0.00,Wunderground v.1.13,2013-03-18 07:25:00,
2013-03-18 03:35:00,4.8,-7.5,30.26,SSE,150,3.0,3.0,56,0.00,,,0.00,Wunderground v.1.13,2013-03-18 07:35:00,
2013-03-18 03:40:00,4.7,-7.2,30.25,ESE,120,3.0,3.0,57,0.00,,,0.00,Wunderground v.1.13,2013-03-18 07:40:00,
2013-03-18 03:50:00,4.3,-7.2,30.26,East,94,1.0,1.0,58,0.00,,,0.00,Wunderground v.1.13,2013-03-18 07:50:00,
2013-03-18 03:55:00,4.2,-7.3,30.26,ESE,107,1.0,2.0,58,0.00,,,0.00,Wunderground v.1.13,2013-03-18 07:55:00,
2013-03-18 04:05:00,4.2,-7.0,30.26,SSE,151,2.0,2.0,59,0.00,,,0.00,Wunderground v.1.13,2013-03-18 08:05:00,
2013-03-18 04:10:00,4.1,-7.1,30.26,SE,127,1.0,2.0,59,0.00,,,0.00,Wunderground v.1.13,2013-03-18 08:10:00,
2013-03-18 04:20:00,3.8,-7.0,30.26,ESE,105,2.0,2.0,60,0.00,,,0.00,Wunderground v.1.13,2013-03-18 08:20:00,
2013-03-18 04:25:00,3.7,-7.1,30.26,ESE,119,1.0,8.0,60,0.00,,,0.00,Wunderground v.1.13,2013-03-18 08:25:00,
2013-03-18 04:35:00,3.4,-7.0,30.27,East,92,2.0,2.0,61,0.00,,,0.00,Wunderground v.1.13,2013-03-18 08:35:00,
2013-03-18 04:40:00,3.2,-6.9,30.27,South,177,1.0,4.0,62,0.00,,,0.00,Wunderground v.1.13,2013-03-18 08:40:00,
2013-03-18 04:50:00,3.1,-7.0,30.27,ESE,102,1.0,3.0,62,0.00,,,0.00,Wunderground v.1.13,2013-03-18 08:50:00,
2013-03-18 04:55:00,3.1,-6.7,30.27,ESE,115,1.0,2.0,63,0.00,,,0.00,Wunderground v.1.13,2013-03-18 08:55:00,
2013-03-18 05:05:00,3.2,-6.6,30.27,ESE,104,2.0,3.0,63,0.00,,,0.00,Wunderground v.1.13,2013-03-18 09:05:00,
2013-03-18 05:11:00,3.1,-6.7,30.28,ESE,122,1.0,2.0,63,0.00,,,0.00,Wunderground v.1.13,2013-03-18 09:11:00,
2013-03-18 05:20:00,2.8,-6.6,30.28,ESE,105,1.0,1.0,64,0.00,,,0.00,Wunderground v.1.13,2013-03-18 09:20:00,
2013-03-18 05:27:00,2.5,-6.9,30.28,ESE,105,0.0,0.0,64,0.00,,,0.00,Wunderground v.1.13,2013-03-18 09:27:00,
2013-03-18 05:35:00,2.0,-7.1,30.28,ESE,105,0.0,0.0,65,0.00,,,0.00,Wunderground v.1.13,2013-03-18 09:35:00,
2013-03-18 05:42:00,1.6,-7.1,30.29,ESE,105,0.0,0.0,66,0.00,,,0.00,Wunderground v.1.13,2013-03-18 09:42:00,
2013-03-18 05:51:00,1.1,-7.3,30.29,ESE,105,0.0,0.0,67,0.00,,,0.00,Wunderground v.1.13,2013-03-18 09:51:00,
2013-03-18 05:57:00,0.9,-7.5,30.29,ESE,102,0.0,0.0,67,0.00,,,0.00,Wunderground v.1.13,2013-03-18 09:57:00,
2013-03-18 06:07:00,0.9,-7.2,30.29,East,86,0.0,0.0,68,0.00,,,0.00,Wunderground v.1.13,2013-03-18 10:07:00,
2013-03-18 06:13:00,0.8,-7.0,30.30,ESE,103,1.0,1.0,69,0.00,,,0.00,Wunderground v.1.13,2013-03-18 10:13:00,
2013-03-18 06:21:00,0.8,-7.3,30.30,ESE,108,0.0,3.0,68,0.00,,,0.00,Wunderground v.1.13,2013-03-18 10:21:00,
2013-03-18 06:27:00,0.8,-7.0,30.30,East,98,0.0,2.0,69,0.00,,,0.00,Wunderground v.1.13,2013-03-18 10:27:00,
2013-03-18 06:35:00,1.0,-6.8,30.30,East,97,0.0,0.0,69,0.00,,,0.00,Wunderground v.1.13,2013-03-18 10:35:00,
2013-03-18 06:41:00,1.0,-6.8,30.30,ESE,107,0.0,1.0,69,0.00,,,0.00,Wunderground v.1.13,2013-03-18 10:41:00,
2013-03-18 06:51:00,1.3,-6.5,30.31,East,86,0.0,0.0,69,0.00,,,0.00,Wunderground v.1.13,2013-03-18 10:51:00,
2013-03-18 06:57:00,1.4,-6.7,30.31,East,86,0.0,0.0,68,0.00,,,0.00,Wunderground v.1.13,2013-03-18 10:57:00,
2013-03-18 07:05:00,1.5,-6.3,30.31,SE,137,0.0,0.0,69,0.00,,,0.00,Wunderground v.1.13,2013-03-18 11:05:00,
2013-03-18 07:11:00,1.6,-6.5,30.31,ESE,104,0.0,2.0,68,0.00,,,0.00,Wunderground v.1.13,2013-03-18 11:11:00,
2013-03-18 07:21:00,1.8,-6.3,30.31,ESE,103,0.0,0.0,68,0.00,,,0.00,Wunderground v.1.13,2013-03-18 11:21:00,
2013-03-18 07:26:00,2.2,-6.0,30.31,SE,136,1.0,1.0,68,0.00,,,0.00,Wunderground v.1.13,2013-03-18 11:26:00,
2013-03-18 07:36:00,2.9,-5.9,30.32,East,94,1.0,1.0,66,0.00,,,0.00,Wunderground v.1.13,2013-03-18 11:36:00,
2013-03-18 07:42:00,3.4,-5.4,30.32,ESE,111,1.0,5.0,66,0.00,,,0.00,Wunderground v.1.13,2013-03-18 11:42:00,
2013-03-18 07:50:00,4.2,-5.3,30.32,East,100,1.0,2.0,64,0.00,,,0.00,Wunderground v.1.13,2013-03-18 11:50:00,
2013-03-18 07:56:00,4.7,-5.1,30.32,East,98,2.0,8.0,63,0.00,,,0.00,Wunderground v.1.13,2013-03-18 11:56:00,
2013-03-18 08:06:00,5.4,-4.8,30.32,ESE,109,3.0,3.0,62,0.00,,,0.00,Wunderground v.1.13,2013-03-18 12:06:00,
2013-03-18 08:11:00,5.7,-4.5,30.32,ENE,62,3.0,4.0,62,0.00,,,0.00,Wunderground v.1.13,2013-03-18 12:11:00,
2013-03-18 08:20:00,6.2,-4.4,30.33,East,92,3.0,3.0,61,0.00,,,0.00,Wunderground v.1.13,2013-03-18 12:20:00,
2013-03-18 08:26:00,6.6,-4.4,30.33,SSE,155,2.0,7.0,60,0.00,,,0.00,Wunderground v.1.13,2013-03-18 12:26:00,
2013-03-18 08:36:00,7.1,-4.2,30.33,SSE,157,7.0,8.0,59,0.00,,,0.00,Wunderground v.1.13,2013-03-18 12:36:00,
2013-03-18 08:42:00,7.4,-4.0,30.33,SE,140,6.0,6.0,59,0.00,,,0.00,Wunderground v.1.13,2013-03-18 12:42:00,
2013-03-18 08:51:00,7.6,-4.1,30.33,South,188,6.0,6.0,58,0.00,,,0.00,Wunderground v.1.13,2013-03-18 12:51:00,
2013-03-18 08:57:00,7.9,-4.2,30.33,ENE,72,7.0,9.0,57,0.00,,,0.00,Wunderground v.1.13,2013-03-18 12:57:00,
2013-03-18 09:06:00,8.4,-4.1,30.33,SSE,150,6.0,9.0,56,0.00,,,0.00,Wunderground v.1.13,2013-03-18 13:06:00,
2013-03-18 09:11:00,9.0,-3.5,30.33,East,82,7.0,7.0,56,0.00,,,0.00,Wunderground v.1.13,2013-03-18 13:11:00,
2013-03-18 09:20:00,9.7,-3.3,30.34,SE,138,6.0,6.0,55,0.00,,,0.00,Wunderground v.1.13,2013-03-18 13:20:00,
2013-03-18 09:26:00,10.4,-3.0,30.34,SE,144,5.0,5.0,54,0.00,,,0.00,Wunderground v.1.13,2013-03-18 13:26:00,
2013-03-18 09:35:00,10.7,-3.5,30.34,ESE,121,6.0,6.0,52,0.00,,,0.00,Wunderground v.1.13,2013-03-18 13:35:00,
2013-03-18 09:42:00,10.8,-3.4,30.34,SE,137,6.0,9.0,52,0.00,,,0.00,Wunderground v.1.13,2013-03-18 13:42:00,
2013-03-18 09:50:00,11.4,-2.8,30.34,East,86,6.0,10.0,52,0.00,,,0.00,Wunderground v.1.13,2013-03-18 13:50:00,
2013-03-18 09:56:00,11.6,-2.7,30.34,SE,126,6.0,6.0,52,0.00,,,0.00,Wunderground v.1.13,2013-03-18 13:56:00,
2013-03-18 10:06:00,12.2,-2.5,30.34,ENE,71,6.0,10.0,51,0.00,,,0.00,Wunderground v.1.13,2013-03-18 14:06:00,
2013-03-18 10:12:00,12.0,-3.1,30.34,East,84,8.0,8.0,50,0.00,,,0.00,Wunderground v.1.13,2013-03-18 14:12:00,
2013-03-18 10:20:00,12.8,-2.8,30.34,ESE,121,7.0,7.0,49,0.00,,,0.00,Wunderground v.1.13,2013-03-18 14:20:00,
2013-03-18 10:26:00,13.4,-2.7,30.34,SE,145,7.0,8.0,48,0.00,,,0.00,Wunderground v.1.13,2013-03-18 14:26:00,
2013-03-18 10:35:00,14.0,-2.1,30.33,ESE,107,6.0,6.0,48,0.00,,,0.00,Wunderground v.1.13,2013-03-18 14:35:00,
2013-03-18 10:41:00,13.9,-2.2,30.34,SE,128,8.0,8.0,48,0.00,,,0.00,Wunderground v.1.13,2013-03-18 14:41:00,
2013-03-18 10:51:00,14.7,-1.9,30.33,SSE,148,5.0,5.0,47,0.00,,,0.00,Wunderground v.1.13,2013-03-18 14:51:00,
2013-03-18 10:57:00,14.8,-1.8,30.33,SSE,151,6.0,6.0,47,0.00,,,0.00,Wunderground v.1.13,2013-03-18 14:57:00,
2013-03-18 11:05:00,15.1,-2.0,30.33,South,169,7.0,11.0,46,0.00,,,0.00,Wunderground v.1.13,2013-03-18 15:05:00,
2013-03-18 11:12:00,15.1,-2.0,30.33,SE,129,8.0,8.0,46,0.00,,,0.00,Wunderground v.1.13,2013-03-18 15:12:00,
2013-03-18 11:21:00,15.1,-2.0,30.33,South,190,8.0,8.0,46,0.00,,,0.00,Wunderground v.1.13,2013-03-18 15:21:00,
2013-03-18 11:27:00,16.0,-1.2,30.32,ESE,110,7.0,15.0,46,0.00,,,0.00,Wunderground v.1.13,2013-03-18 15:27:00,
2013-03-18 11:36:00,16.4,-1.3,30.32,ESE,110,6.0,6.0,45,0.00,,,0.00,Wunderground v.1.13,2013-03-18 15:36:00,
2013-03-18 11:41:00,16.7,-1.5,30.32,SE,140,6.0,6.0,44,0.00,,,0.00,Wunderground v.1.13,2013-03-18 15:41:00,
2013-03-18 11:50:00,17.6,-0.6,30.32,SSE,164,6.0,6.0,44,0.00,,,0.00,Wunderground v.1.13,2013-03-18 15:50:00,
2013-03-18 11:56:00,17.4,-1.3,30.32,SE,146,6.0,8.0,43,0.00,,,0.00,Wunderground v.1.13,2013-03-18 15:56:00,
2013-03-18 12:05:00,17.3,-0.9,30.32,SE,146,7.0,7.0,44,0.00,,,0.00,Wunderground v.1.13,2013-03-18 16:05:00,
2013-03-18 12:11:00,17.6,-1.1,30.33,ESE,121,6.0,8.0,43,0.00,,,0.00,Wunderground v.1.13,2013-03-18 16:11:00,
2013-03-18 12:21:00,17.4,-1.3,30.32,SE,140,7.0,7.0,43,0.00,,,0.00,Wunderground v.1.13,2013-03-18 16:21:00,
2013-03-18 12:26:00,17.7,-1.5,30.32,SSE,165,7.0,8.0,42,0.00,,,0.00,Wunderground v.1.13,2013-03-18 16:26:00,
2013-03-18 12:37:00,18.7,-0.6,30.32,ESE,105,7.0,16.0,42,0.00,,,0.00,Wunderground v.1.13,2013-03-18 16:37:00,
2013-03-18 12:43:00,18.4,-1.4,30.31,East,83,8.0,10.0,41,0.00,,,0.00,Wunderground v.1.13,2013-03-18 16:43:00,
2013-03-18 12:50:00,18.9,-1.0,30.31,SSE,147,7.0,7.0,41,0.00,,,0.00,Wunderground v.1.13,2013-03-18 16:50:00,
2013-03-18 12:56:00,19.3,-0.1,30.31,East,92,7.0,7.0,42,0.00,,,0.00,Wunderground v.1.13,2013-03-18 16:56:00,
2013-03-18 13:05:00,20.1,-0.4,30.31,East,100,6.0,6.0,40,0.00,,,0.00,Wunderground v.1.13,2013-03-18 17:05:00,
2013-03-18 13:11:00,20.4,0.4,30.31,SE,134,6.0,6.0,41,0.00,,,0.00,Wunderground v.1.13,2013-03-18 17:11:00,
2013-03-18 13:21:00,20.9,-0.8,30.31,ESE,103,5.0,7.0,38,0.00,,,0.00,Wunderground v.1.13,2013-03-18 17:21:00,
2013-03-18 13:27:00,21.1,-0.6,30.30,SE,143,6.0,7.0,38,0.00,,,0.00,Wunderground v.1.13,2013-03-18 17:27:00,
2013-03-18 13:36:00,22.3,-0.7,30.30,East,85,5.0,5.0,36,0.00,,,0.00,Wunderground v.1.13,2013-03-18 17:36:00,
2013-03-18 13:42:00,21.9,-1.6,30.30,SSE,167,6.0,6.0,35,0.00,,,0.00,Wunderground v.1.13,2013-03-18 17:42:00,
2013-03-18 13:47:00,22.0,-1.5,30.30,East,95,6.0,8.0,35,0.00,,,0.00,Wunderground v.1.13,2013-03-18 17:47:00,
2013-03-18 13:53:00,22.1,-1.4,30.30,SSE,162,6.0,7.0,35,0.00,,,0.00,Wunderground v.1.13,2013-03-18 17:53:00,
2013-03-18 13:58:00,22.3,-1.9,30.30,East,96,6.0,12.0,34,0.00,,,0.00,Wunderground v.1.13,2013-03-18 17:58:00,
2013-03-18 14:06:00,22.9,-0.7,30.30,SE,146,5.0,5.0,35,0.00,,,0.00,Wunderground v.1.13,2013-03-18 18:06:00,
2013-03-18 14:12:00,23.0,-1.2,30.30,ESE,121,5.0,6.0,34,0.00,,,0.00,Wunderground v.1.13,2013-03-18 18:12:00,
2013-03-18 14:20:00,22.8,-1.4,30.30,ESE,107,5.0,5.0,34,0.00,,,0.00,Wunderground v.1.13,2013-03-18 18:20:00,
2013-03-18 14:26:00,23.0,-1.2,30.30,ESE,111,5.0,13.0,34,0.00,,,0.00,Wunderground v.1.13,2013-03-18 18:26:00,
2013-03-18 14:35:00,23.0,-2.5,30.30,East,82,6.0,6.0,32,0.00,,,0.00,Wunderground v.1.13,2013-03-18 18:35:00,
2013-03-18 14:41:00,23.2,-2.4,30.30,SSE,149,6.0,6.0,32,0.00,,,0.00,Wunderground v.1.13,2013-03-18 18:41:00,
2013-03-18 14:50:00,23.5,-2.1,30.30,ENE,75,5.0,8.0,32,0.00,,,0.00,Wunderground v.1.13,2013-03-18 18:50:00,
2013-03-18 14:56:00,23.6,-2.0,30.30,SE,125,6.0,7.0,32,0.00,,,0.00,Wunderground v.1.13,2013-03-18 18:56:00,
2013-03-18 15:07:00,23.9,-2.4,30.30,East,92,6.0,13.0,31,0.00,,,0.00,Wunderground v.1.13,2013-03-18 19:07:00,
2013-03-18 15:12:00,23.5,-2.8,30.29,East,90,7.0,9.0,31,0.00,,,0.00,Wunderground v.1.13,2013-03-18 19:12:00,
2013-03-18 15:20:00,23.9,-2.4,30.29,NNW,342,6.0,6.0,31,0.00,,,0.00,Wunderground v.1.13,2013-03-18 19:20:00,
2013-03-18 15:26:00,24.1,-1.6,30.29,ESE,110,6.0,10.0,32,0.00,,,0.00,Wunderground v.1.13,2013-03-18 19:26:00,
2013-03-18 15:36:00,24.3,-2.7,30.29,ESE,110,6.0,6.0,30,0.00,,,0.00,Wunderground v.1.13,2013-03-18 19:36:00,
2013-03-18 15:42:00,24.6,-3.2,30.29,ESE,107,5.0,14.0,29,0.00,,,0.00,Wunderground v.1.13,2013-03-18 19:42:00,
2013-03-18 15:50:00,24.7,-3.1,30.29,SE,128,6.0,6.0,29,0.00,,,0.00,Wunderground v.1.13,2013-03-18 19:50:00,
2013-03-18 15:56:00,24.3,-2.7,30.29,ESE,105,7.0,7.0,30,0.00,,,0.00,Wunderground v.1.13,2013-03-18 19:56:00,
2013-03-18 16:06:00,24.5,-3.3,30.28,SE,132,6.0,6.0,29,0.00,,,0.00,Wunderground v.1.13,2013-03-18 20:06:00,
2013-03-18 16:12:00,24.7,-1.7,30.29,ESE,121,5.0,7.0,31,0.00,,,0.00,Wunderground v.1.13,2013-03-18 20:12:00,
2013-03-18 16:21:00,24.7,-2.4,30.29,East,82,6.0,6.0,30,0.00,,,0.00,Wunderground v.1.13,2013-03-18 20:21:00,
2013-03-18 16:26:00,24.9,-2.2,30.28,East,86,5.0,7.0,30,0.00,,,0.00,Wunderground v.1.13,2013-03-18 20:26:00,
2013-03-18 16:36:00,24.8,-2.3,30.28,ESE,119,5.0,5.0,30,0.00,,,0.00,Wunderground v.1.13,2013-03-18 20:36:00,
2013-03-18 16:42:00,24.9,-1.5,30.27,SSE,148,4.0,8.0,31,0.00,,,0.00,Wunderground v.1.13,2013-03-18 20:42:00,
2013-03-18 16:51:00,24.3,-2.7,30.27,SSE,165,6.0,6.0,30,0.00,,,0.00,Wunderground v.1.13,2013-03-18 20:51:00,
2013-03-18 16:56:00,23.9,-3.1,30.27,East,82,6.0,6.0,30,0.00,,,0.00,Wunderground v.1.13,2013-03-18 20:56:00,
2013-03-18 17:06:00,23.9,-3.1,30.28,SE,143,5.0,7.0,30,0.00,,,0.00,Wunderground v.1.13,2013-03-18 21:06:00,
2013-03-18 17:12:00,23.7,-2.6,30.29,SSE,159,5.0,5.0,31,0.00,,,0.00,Wunderground v.1.13,2013-03-18 21:12:00,
2013-03-18 17:21:00,23.0,-3.2,30.29,South,176,4.0,5.0,31,0.00,,,0.00,Wunderground v.1.13,2013-03-18 21:21:00,
2013-03-18 17:26:00,22.8,-2.7,30.29,SE,138,4.0,4.0,32,0.00,,,0.00,Wunderground v.1.13,2013-03-18 21:26:00,
2013-03-18 17:41:00,22.3,-2.5,30.29,SE,145,4.0,4.0,33,0.00,,,0.00,Wunderground v.1.13,2013-03-18 21:41:00,
2013-03-18 17:50:00,22.0,-2.1,30.29,SE,126,4.0,4.0,34,0.00,,,0.00,Wunderground v.1.13,2013-03-18 21:50:00,
2013-03-18 17:56:00,21.8,-2.3,30.30,SE,131,4.0,6.0,34,0.00,,,0.00,Wunderground v.1.13,2013-03-18 21:56:00,
2013-03-18 18:06:00,21.6,-3.1,30.30,SE,132,3.0,3.0,33,0.00,,,0.00,Wunderground v.1.13,2013-03-18 22:06:00,
2013-03-18 18:12:00,21.3,-2.8,30.30,SSE,165,3.0,6.0,34,0.00,,,0.00,Wunderground v.1.13,2013-03-18 22:12:00,
2013-03-18 18:28:00,20.7,-2.7,30.29,SE,146,2.0,2.0,35,0.00,,,0.00,Wunderground v.1.13,2013-03-18 22:28:00,
2013-03-18 18:36:00,20.4,-2.4,30.29,East,85,2.0,5.0,36,0.00,,,0.00,Wunderground v.1.13,2013-03-18 22:36:00,
2013-03-18 18:42:00,20.2,-2.5,30.30,NE,47,2.0,3.0,36,0.00,,,0.00,Wunderground v.1.13,2013-03-18 22:42:00,
2013-03-18 18:50:00,19.8,-0.7,30.30,NE,47,0.0,0.0,40,0.00,,,0.00,Wunderground v.1.13,2013-03-18 22:50:00,
2013-03-18 18:56:00,19.1,-0.3,30.30,NE,47,0.0,0.0,42,0.00,,,0.00,Wunderground v.1.13,2013-03-18 22:56:00,
2013-03-18 19:08:00,17.3,-0.9,30.30,NE,47,0.0,0.0,44,0.00,,,0.00,Wunderground v.1.13,2013-03-18 23:08:00,
2013-03-18 19:14:00,16.4,0.1,30.30,NE,47,0.0,0.0,48,0.00,,,0.00,Wunderground v.1.13,2013-03-18 23:14:00,
2013-03-18 19:23:00,15.2,-0.1,30.30,NE,47,0.0,0.0,50,0.00,,,0.00,Wunderground v.1.13,2013-03-18 23:23:00,
2013-03-18 19:28:00,14.8,-1.8,30.30,NE,47,0.0,0.0,47,0.00,,,0.00,Wunderground v.1.13,2013-03-18 23:28:00,
2013-03-18 19:34:00,14.3,-0.6,30.30,NE,47,0.0,0.0,51,0.00,,,0.00,Wunderground v.1.13,2013-03-18 23:34:00,
2013-03-18 19:40:00,13.8,1.4,30.31,NE,47,0.0,0.0,57,0.00,,,0.00,Wunderground v.1.13,2013-03-18 23:40:00,
2013-03-18 19:45:00,13.4,1.0,30.31,NE,47,0.0,0.0,57,0.00,,,0.00,Wunderground v.1.13,2013-03-18 23:45:00,
2013-03-18 19:51:00,13.0,-0.2,30.31,NE,47,0.0,0.0,55,0.00,,,0.00,Wunderground v.1.13,2013-03-18 23:51:00,
2013-03-18 19:57:00,12.7,-0.4,30.31,NE,47,0.0,0.0,55,0.00,,,0.00,Wunderground v.1.13,2013-03-18 23:57:00,
2013-03-18 20:06:00,13.1,-0.1,30.31,NE,47,0.0,0.0,55,0.00,,,0.00,Wunderground v.1.13,2013-03-19 00:06:00,
2013-03-18 20:12:00,13.2,0.4,30.31,NE,47,0.0,0.0,56,0.00,,,0.00,Wunderground v.1.13,2013-03-19 00:12:00,
2013-03-18 20:21:00,13.3,-0.3,30.32,NE,47,0.0,0.0,54,0.00,,,0.00,Wunderground v.1.13,2013-03-19 00:21:00,
2013-03-18 20:26:00,13.4,0.2,30.31,NE,47,0.0,0.0,55,0.00,,,0.00,Wunderground v.1.13,2013-03-19 00:26:00,
2013-03-18 20:36:00,12.6,1.3,30.31,NE,47,0.0,0.0,60,0.00,,,0.00,Wunderground v.1.13,2013-03-19 00:36:00,
2013-03-18 20:41:00,12.3,0.7,30.31,NE,47,0.0,0.0,59,0.00,,,0.00,Wunderground v.1.13,2013-03-19 00:41:00,
2013-03-18 20:46:00,12.1,0.5,30.31,NE,47,0.0,0.0,59,0.00,,,0.00,Wunderground v.1.13,2013-03-19 00:46:00,
2013-03-18 20:52:00,12.0,0.0,30.31,NE,47,0.0,0.0,58,0.00,,,0.00,Wunderground v.1.13,2013-03-19 00:52:00,
2013-03-18 20:57:00,12.0,-0.3,30.31,NE,47,0.0,0.0,57,0.00,,,0.00,Wunderground v.1.13,2013-03-19 00:57:00,
2013-03-18 21:06:00,11.6,0.0,30.31,NE,47,0.0,0.0,59,0.00,,,0.00,Wunderground v.1.13,2013-03-19 01:06:00,
2013-03-18 21:11:00,11.4,-0.2,30.31,NE,47,0.0,0.0,59,0.00,,,0.00,Wunderground v.1.13,2013-03-19 01:11:00,
2013-03-18 21:26:00,9.3,0.9,30.31,NE,47,0.0,0.0,68,0.00,,,0.00,Wunderground v.1.13,2013-03-19 01:26:00,
2013-03-18 21:36:00,8.8,1.3,30.32,NE,47,0.0,0.0,71,0.00,,,0.00,Wunderground v.1.13,2013-03-19 01:36:00,
2013-03-18 21:42:00,8.4,1.2,30.32,NE,47,0.0,0.0,72,0.00,,,0.00,Wunderground v.1.13,2013-03-19 01:42:00,
2013-03-18 21:51:00,8.0,1.1,30.32,NE,47,0.0,0.0,73,0.00,,,0.00,Wunderground v.1.13,2013-03-19 01:51:00,
2013-03-18 21:57:00,7.7,1.1,30.32,NE,47,0.0,0.0,74,0.00,,,0.00,Wunderground v.1.13,2013-03-19 01:57:00,
2013-03-18 22:06:00,7.2,0.9,30.32,NE,47,0.0,0.0,75,0.00,,,0.00,Wunderground v.1.13,2013-03-19 02:06:00,
2013-03-18 22:12:00,7.1,0.6,30.33,NE,47,0.0,0.0,74,0.00,,,0.00,Wunderground v.1.13,2013-03-19 02:12:00,
2013-03-18 22:21:00,7.0,0.5,30.33,NE,47,0.0,0.0,74,0.00,,,0.00,Wunderground v.1.13,2013-03-19 02:21:00,
2013-03-18 22:27:00,7.1,0.3,30.34,NE,47,0.0,0.0,73,0.00,,,0.00,Wunderground v.1.13,2013-03-19 02:27:00,
2013-03-18 22:36:00,7.5,0.7,30.34,NE,47,0.0,0.0,73,0.00,,,0.00,Wunderground v.1.13,2013-03-19 02:36:00,
2013-03-18 22:42:00,7.0,0.7,30.35,NE,47,0.0,1.0,75,0.00,,,0.00,Wunderground v.1.13,2013-03-19 02:42:00,
2013-03-18 22:51:00,6.8,0.6,30.36,NE,47,0.0,0.0,75,0.00,,,0.00,Wunderground v.1.13,2013-03-19 02:51:00,
2013-03-18 22:56:00,6.6,0.4,30.35,NE,47,0.0,0.0,75,0.00,,,0.00,Wunderground v.1.13,2013-03-19 02:56:00,
2013-03-18 23:06:00,6.5,0.5,30.36,NE,47,0.0,0.0,76,0.00,,,0.00,Wunderground v.1.13,2013-03-19 03:06:00,
2013-03-18 23:12:00,6.3,0.1,30.36,NE,47,0.0,0.0,75,0.00,,,0.00,Wunderground v.1.13,2013-03-19 03:12:00,
2013-03-18 23:21:00,5.9,0.0,30.36,NE,47,0.0,2.0,76,0.00,,,0.00,Wunderground v.1.13,2013-03-19 03:21:00,
2013-03-18 23:26:00,5.6,-0.1,30.35,NE,47,1.0,1.0,77,0.00,,,0.00,Wunderground v.1.13,2013-03-19 03:26:00,
2013-03-18 23:37:00,5.2,-0.4,30.35,NE,47,0.0,0.0,77,0.00,,,0.00,Wunderground v.1.13,2013-03-19 03:37:00,
2013-03-18 23:42:00,4.9,-0.5,30.35,NE,47,0.0,0.0,78,0.00,,,0.00,Wunderground v.1.13,2013-03-19 03:42:00,
2013-03-18 23:51:00,4.6,-0.5,30.35,NE,47,0.0,0.0,79,0.00,,,0.00,Wunderground v.1.13,2013-03-19 03:51:00,
2013-03-18 23:57:00,4.5,-0.6,30.35,NE,47,0.0,0.0,79,0.00,,,0.00,Wunderground v.1.13,2013-03-19 03:57:00,